Location: Riverside
(39.1734°N, 77.8561°W)
Time: 10:05:02
(UTC+00:00)

OTV 5 (USA 277) - Pass Details

Date: 19 October 2019
Orbit: 310 x 324 km, 54.5° (Epoch: 17 October)

Event Time Altitude Azimuth Distance (km) Brightness Sun altitude
Exits shadow 10:54:04 - 304° (NW) 1,441 ? -6.7°
Reaches altitude 10° 10:54:34 10° 302° (WNW) 1,236 ? -6.6°
Maximum altitude 10:57:13 45° 227° (SW) 445 ? -6.1°
Drops below altitude 10° 10:59:50 10° 152° (SSE) 1,221 ? -5.6°
Sets 11:01:49 0° 146° (SE) 2,045 ? -5.2°
